COSMOS 2193

Satellite information

Favourite Embed

Satellite Type and Status

PAYLOADIN ORBIT

Key statistics

Satellite COSMOS 2193 at a glance.

Uptime

12025

Days in orbit

Revolutions

≈ 12.5

Per day

Orbit

LEO

Low Earth Orbit

Inclination

74.0

Latest

Satellite identification and parameters

Extended collection of information and parameters for COSMOS 2193.

Object identification

Identified? True

Debris? False

Object name: COSMOS 2193

International designator: 1992-030G

Object number (NORAD): 21982

Object ID (CCSDS): 21982

Country: COMMONWEALTH OF INDEPENDENT STATES (CIS)

Current information (Y/N): Y

RCS size: MEDIUM

Orbital parameters

Period: 115.159 minutes

Inclination: 74.0009 deg

SMA: 7840.755 km

Apoapsis: 1478.995 km

Periapsis: 1446.246 km

RAAN: 96.8463 deg

Eccentricy: 0.0020884

Argument of periapsis: 65.0126 deg

Mean anomaly: 95.4156 deg

Mean motion: 12.5044879 rev/day

Mean motion (dot): 0.00000007 rev/day2

B* drag term: 0.0001488 1/REarth

Two-line elements (TLE)

Creation date: May 6, 2025, 3:54 a.m.

Reference frame: TEME

Reference center: EARTH

Epoch: May 5, 2025, 9:39 a.m. UTC

TLE line 0: 0 COSMOS 2193

TLE line 1: 1 21982U 92030G 25125.40220874 .00000007 00000-0 14880-3 0 9999

TLE line 2: 2 21982 74.0009 96.8463 0020884 65.0126 95.4156 12.50448790502773

Live tracking on map

Real-time ground track for satellite COSMOS 2193.

In-orbit conjunctions

A list of the most updated potential collisions computed for object COSMOS 2193.

Target Orbit TCA Probability of collision Miss distance Type
SL-14 DEB LEO 2025-03-11 19:51:07 0.0001010224 408.0 (m) DEBRIS

Associated space launch

Military communications satellites

COSMOS 2193 was lifted into orbit during the mission ‘Kosmos-3M | Strela-1M 361-368’, on board a Kosmos-3M space rocket.

The launch took place on June 3, 1992, 12:50 a.m. from 133/3 (133L).

For more information about the launch, click the button.

Launch to space Kosmos-3M | Strela-1M 361-368
Kosmos-3M | Strela-1M 361-368

Agency: N/A

Status: Launch Successful

Launch date: June 3, 1992, 12:50 a.m. UTC

Rocket: Kosmos-3M

Launch pad: 133/3 (133L)

Location: Plesetsk Cosmodrome, Russian Federation

...

Latest news about this satellite

There are no fresh news available about this satellite. Check back as we update our databases every day.


Newsletter sign-up

Weekly statistics, charts and insights to help you stay on top of the space industry.